Terminal Aerodrome Forecast
Issued by NWS Charleston, SC

Home | Current Version | Previous Version | Text Only | Print | Product List | Glossary On
Versions: 1 2 3 4 5 6 7 8 9 10 11 12 13 14 15 16 17 18
000
FTUS42 KCHS 251900 AAA
TAFCHS
TAF AMD
KCHS 251955Z 2520/2618 17010KT P6SM VCTS SCT030CB BKN060
      TEMPO 2520/2522 5SM TSRA BR BKN035CB
     FM260000 22005KT P6SM SCT050 SCT100
      TEMPO 2609/2612 5SM BR
     FM261300 27006KT P6SM SCT045 SCT250=

USA.gov is the U.S. government's official web portal to all federal, state and local government web resources and services.